Location: Newark
(44.0160°N, 116.9215°W)
Time: 09:18:16
(UTC+00:00)

Envisat - Pass Details

Date: 21 November 2019
Orbit: 764 x 766 km, 98.1° (Epoch: 07 December)

Event Time Altitude Azimuth Distance (km) Brightness Sun altitude
Rises 02:38:46 0° 195° (SSW) 3,218 6.5 -25.2°
Reaches altitude 10° 02:41:22 10° 207° (SSW) 2,297 5.8 -25.7°
Maximum altitude 02:45:41 28° 266° (W) 1,415 5.0 -26.5°
Drops below altitude 10° 02:50:01 10° 324° (NW) 2,311 5.9 -27.2°
Sets 02:52:39 0° 336° (NNW) 3,242 6.5 -27.7°
